View from above orbital plane
|
View from above satellite
|
Ground track
|
The orbit data is extracted from the following two-line orbital elements,
1 32959U 08026B 21104.49857508 -.00000013 00000-0 10663-4 0 9993
2 32959 98.8897 62.4635 0071186 119.8123 352.3185 14.41792582677687
Epoch (UTC): | 14 April 2021 11:57:56 |
Eccentricity: | 0.0071186 |
inclination: | 98.8897° |
perigee height: | 702 km |
apogee height: | 803 km |
right ascension of ascending node: | 62.4635° |
argument of perigee: | 119.8123° |
revolutions per day: | 14.41792582 |
mean anomaly at epoch: | 352.3185° |
orbit number at epoch: | 67768 |
The dashed part of the orbit path shows where the satellite is in the earth's shadow,
|
|